Location: Macksville High School
(37.9611°N, 99.9654°W)
Time: 19:12:47
(UTC+00:00)

NOAA 6 - Pass Details

Date: 17 January 2021
Orbit: 773 x 786 km, 98.7° (Epoch: 26 February)

Event Time Altitude Azimuth Distance (km) Brightness Sun altitude
Rises 12:42:14 0° 12° (NNE) 3,282 7.2 -14.0°
Reaches altitude 10° 12:44:34 10° 13° (NNE) 2,351 6.5 -13.6°
Maximum altitude 12:49:46 88° 282° (WNW) 792 4.0 -12.6°
Drops below altitude 10° 12:54:57 10° 196° (SSW) 2,338 6.5 -11.6°
Sets 12:57:15 0° 196° (SSW) 3,262 7.3 -11.2°
